STARLINK-1662 (46369 NORAD) Tracking and Keplerian Element Data

This shows tracking and keplerian element data for the satellite.

Feedback or suggestion? Click here.




ElementValue
Catalog46369
NameSTARLINK-1662
Epoch Orbit180
Epoch Day335.91670139
Epoch Year2020
RAAN358.1413
Inclination53.0013
Eccentricity0.0001329
Argument of Perigee76.1314
Mean Anonmoly173.364
Mean Motion15.2848159
Decay Rate-0.01066517
L11 46369U 20062AW 20335.91670139 -.01066517 00000-0 -41410-1 0 9996
L22 46369 53.0013 358.1413 0001329 76.1314 173.3640 15.28481590 1800

Live tracking and technical data element details for STARLINK-1662 (NORAD 46369). STARLINK-1662 can be tracked NOW for your location showing map with azimuth and elevation plus other details from your city location.

Track the satellite on the map from your city or location and see movement details for azimuth, elevation, latitude, longitude, range, height, and movement on the map or in text.







IsCatalogInMostPopularTable: catalog: 46369, numindb: 26
Update: records affected: 1



GetName: 46369 STARLINK-1662

Hit Count: updated at: Tue, 01 Dec 2020 20:49:37 GMT